Overview Statistics Trail Chart Weather Telemetry Raw packets
 

This is the latest recevied weather packets stored in our database for station/object DG0LHZ-10. If no packets are shown the sender has not sent any weather packets the latest 10 day(s).

<< 2 3 4 5 6 7 8 >>
Time Temp. Humidity Pressure Rain* Wind** Luminosity Snow
1788278304 28.89° C 37% 1020.3 hPa - - - -
1788277404 28.89° C 37% 1020.4 hPa - - - -
1788276504 28.89° C 37% 1020.3 hPa - - - -
1788275604 29.44° C 37% 1020.5 hPa - - - -
1788274704 30° C 37% 1020.5 hPa - - - -
1788273804 29.44° C 38% 1020.6 hPa - - - -
1788272904 29.44° C 39% 1020.5 hPa - - - -
1788272004 28.89° C 39% 1020.6 hPa - - - -
1788271104 28.89° C 39% 1020.6 hPa - - - -
1788270204 28.89° C 39% 1020.7 hPa - - - -
1788269303 28.89° C 41% 1020.7 hPa - - - -
1788268403 28.33° C 42% 1020.7 hPa - - - -
1788267503 28.33° C 42% 1020.7 hPa - - - -
1788266603 27.78° C 42% 1020.7 hPa - - - -
1788265703 27.22° C 43% 1021 hPa - - - -
1788264803 26.11° C 45% 1020.9 hPa - - - -
1788263903 25.56° C 46% 1021 hPa - - - -
1788263003 25.56° C 46% 1021.1 hPa - - - -
1788262103 25.56° C 47% 1021.1 hPa - - - -
1788261203 25.56° C 47% 1021.1 hPa - - - -
1788260303 25° C 49% 1021.1 hPa - - - -
1788259403 25° C 49% 1021.1 hPa - - - -
1788258503 23.89° C 50% 1021.2 hPa - - - -
1788257603 23.33° C 51% 1021.1 hPa - - - -
1788256703 22.78° C 52% 1021.3 hPa - - - -

* Rain since midnight (hover to see other rain measurements)
** Current wind speed in m/s (hover to see current wind gust speed)